MDT,Max TemperatureF,Mean TemperatureF,Min TemperatureF,Max Dew PointF,MeanDew PointF,Min DewpointF,Max Humidity, Mean Humidity, Min Humidity, Max Sea Level PressureIn, Mean Sea Level PressureIn, Min Sea Level PressureIn, Max VisibilityMiles, Mean VisibilityMiles, Min VisibilityMiles, Max Wind SpeedMPH, Mean Wind SpeedMPH, Max Gust SpeedMPH,PrecipitationIn, CloudCover, Events, WindDirDegrees
2011-10-1,78,55,33,36,30,27,75,51,17,30.29,30.25,30.16,10,10,8,12,5,23,0.00,1,,350
2011-10-2,69,54,39,45,35,30,75,51,28,30.25,30.21,30.18,10,10,8,14,5,20,0.00,3,,278
2011-10-3,71,52,32,39,33,28,87,66,25,30.29,30.24,30.07,10,10,9,14,5,16,0.00,1,,18
2011-10-4,62,52,39,46,37,32,87,69,42,30.06,29.99,29.87,10,10,3,36,5,44,0.00,6,Rain,352
2011-10-5,55,48,41,45,39,37,87,81,58,29.87,29.71,29.57,10,10,5,13,2,18,0.00,7,Rain-Thunderstorm,236
2011-10-6,42,37,32,37,33,27,93,83,75,29.74,29.60,29.50,10,8,0,15,8,17,0.00,8,Rain-Snow,190
2011-10-7,39,36,32,32,28,27,87,78,70,30.04,29.87,29.72,10,10,5,17,11,20,0.00,8,Snow,196
2011-10-8,48,40,33,34,32,28,93,79,50,30.26,30.15,30.05,10,10,10,15,3,18,0.00,7,,359
2011-10-9,46,39,32,34,30,28,87,75,50,30.26,30.17,30.05,10,10,5,12,2,,0.00,7,,222
2011-10-10,53,42,30,36,30,27,93,76,38,30.05,29.99,29.90,10,10,7,18,5,26,0.00,7,,163
2011-10-11,50,44,39,37,35,30,87,82,50,30.10,29.95,29.90,10,9,6,20,7,30,0.00,8,Rain,221
2011-10-12,53,42,30,34,27,21,86,62,35,30.26,30.20,30.10,10,10,10,17,6,18,0.00,4,,202
2011-10-13,57,45,33,30,26,21,75,52,31,30.22,30.16,30.08,10,10,10,17,6,22,0.00,5,,212
2011-10-14,64,55,44,34,31,28,66,48,32,30.14,30.10,30.07,10,10,10,17,7,25,0.00,5,,205
2011-10-15,62,50,39,36,34,32,81,57,34,30.11,30.09,30.05,10,10,10,18,8,25,0.00,3,,212
2011-10-16,62,52,42,41,35,30,87,59,34,30.10,30.07,30.04,10,10,6,21,9,30,0.00,6,Rain-Thunderstorm,210
2011-10-17,46,38,30,37,29,18,93,72,32,30.41,30.26,30.04,10,10,8,13,6,22,0.00,4,,297
2011-10-18,53,38,23,28,23,19,93,72,30,30.49,30.41,30.35,10,10,10,7,3,,0.00,0,,16
2011-10-19,53,37,21,30,24,18,86,69,35,30.34,30.18,30.03,10,10,10,9,3,,0.00,0,,16
2011-10-20,57,39,21,32,26,18,86,69,33,30.22,30.17,30.10,10,10,10,15,6,25,0.00,0,,13
2011-10-21,55,42,28,37,31,25,93,73,38,30.31,30.24,30.21,10,10,10,13,5,,0.00,5,,7
2011-10-22,55,44,32,37,32,28,87,69,38,30.33,30.28,30.24,10,10,10,17,5,22,0.00,5,,124
2011-10-23,59,47,35,34,30,28,75,60,34,30.28,30.23,30.16,10,10,10,18,7,23,0.00,1,,214
2011-10-24,59,46,33,34,28,14,75,57,29,30.16,30.04,29.95,10,10,8,21,6,25,0.00,3,,196
2011-10-25,42,34,24,25,18,10,75,52,29,30.18,30.10,30.02,10,10,8,20,10,26,0.00,2,,346
2011-10-26,39,28,17,28,11,1,75,55,26,30.24,30.18,30.15,10,10,10,13,9,,0.00,1,,14
2011-10-27,44,30,15,14,11,7,73,54,25,30.23,30.18,30.11,10,10,10,13,4,16,0.00,1,,347
2011-10-28,46,30,14,18,11,9,79,56,22,30.36,30.25,30.15,10,10,10,12,6,,0.00,0,,268
2011-10-29,50,42,33,27,15,7,65,37,24,30.22,30.13,30.05,10,10,10,22,10,22,0.00,5,,209
2011-10-30,55,40,24,27,24,19,80,62,33,30.33,30.24,30.21,10,10,10,15,8,23,0.00,0,,155
2011-10-31,53,40,26,36,26,19,87,64,38,30.21,30.10,30.01,10,10,10,21,7,31,0.00,6,Rain,189